Location: Briis
(48.6240°N, 2.1211°E)
Time: 07:06:52
(UTC+00:00)

Resurs 1-4 Rocket - Pass Details

Date: 25 September 2020
Orbit: 800 x 814 km, 98.6° (Epoch: 21 October)

Event Time Altitude Azimuth Distance (km) Brightness Sun altitude
Rises 03:02:18 0° 4° (N) 3,328 5.8 -26.1°
Reaches altitude 10° 03:05:07 10° 350° (N) 2,394 4.8 -25.7°
Enters shadow 03:08:01 21° 318° (NW) 1,768 3.7 -25.3°
